Погода в Чите

Россия / Республика Татарстан     55°43′35″N   49°54′33″E
темп.,
°C
ветер,
м/с
пор.,
м/с
влажн.,
%
обл.,
%
осадки,
мм/ч
давл.,
гПа
погр.,
м
6 мая, чт
чт600:00+4зюз410882 0.0 1011257
03:00+4зюз3983100 0.0 1012316
06:00+6зюз2576100 0.0 1014209
09:00+8юз357520 0.0 1015414
12:00+13зюз5766100 0.0 10161210
15:00+15юз466583 0.1 10151014
18:00+13ю4872100 0.1 1015213
21:00+10ююз367881 0.1 101695
7 мая, пт
пт700:00+9ю31085100 0.0 1016178
03:00+8ю4118788 0.0 1016184
06:00+10ю51274100 0.0 1016337
09:00+14ююз71257100 0.0 1016793
12:00+17ююз81147100 0.0 10161931
15:00+17ююз61048100 0.0 10151965
18:00+15юз496299 0.0 1016352
21:00+11сз359161 0.3 1018174
8 мая, сб
сб800:00+10ссв2289100 0.2 101865
03:00+9ссв2290100 0.2 101935
06:00+10всв249198 0.0 1019155
09:00+13ююв3475100 0.0 1019541
12:00+18ююв57525 0.1 10171611
15:00+19ююз574880 0.1 10162101
18:00+16ююв476695 0.0 1016190
21:00+13юв5127499 0.0 1016224
9 мая, вс
вс900:00+13ююв5136411 0.0 1015327
03:00+11ююв51471100 0.0 1015281
06:00+13ююв61468100 0.0 1015422
09:00+15ю51364100 0.0 1015673
12:00+16ююв61160100 0.0 1015422
15:00+19ююз61157100 0.0 10161532
18:00+14зюз4786100 0.6 1017258
21:00+11сз4695100 1.1 1019235
10 мая, пн
пн1000:00+10ссз4696100 5.7 1020271
03:00+8с5795100 8.7 1022280
06:00+8ссв5893100 1.9 1023281
09:00+8с6992100 2.7 1026510
12:00+8ссв61090100 1.0 1027438
15:00+9ссв468178 1.1 1027464
18:00+9ссв478375 0.0 1028391
21:00+7всв22915 0.0 102915